sat.trackr.live / text

‹ back to catalog

JACKAL X-1L-002

NORAD 59134 · 2024-043AN

PAYLOAD ACTIVE UNKNOWN

§ Identity

Operator
Country
US
Launch date
2024-03-04
Launch site
AFWTR
Launch vehicle
Mass (kg)
RCS (m²)

External: N2YO · Heavens-Above · Gunter

§ Orbital elements

Epoch: 2026-05-24T23:36:44.123328Z

Period
93.18 min
Inclination
97.5546°
Eccentricity
0.0006051
Mean motion
15.45352891 rev/d
Perigee alt
426.2 km
Apogee alt
434.5 km
Semi-major
6,808.5 km
B*
3.5312e-4
RAAN
289.9867°
Arg perigee
293.2304°
Mean anomaly
66.8307°
Rev number
12,403

§ Raw data

JACKAL X-1L-0021 59134U 24043AN  26144.98384402  .00016780  00000+0  35312-3 0  99982 59134  97.5546 289.9867 0006051 293.2304  66.8307 15.45352891124037

JSON: /api/v1/satellites/59134 · /tle

For live sub-satellite position, see the globe view (requires WebGL).

§ Visibility from observer

Set your observer location to see the next 7 days of passes ≥ 10°. The values pass through the URL so the page stays shareable.

No JS? Fill the form by hand. The geolocation button needs JavaScript.